Вернуться в каталог

STARLINK-31948

АктивенСвязьVLEO
NORAD 59941·PAYLOAD·🇺🇸 United States

Запущен Jun 1, 2024 с Cape Canaveral Space Force Station

Loading…

Ближайшие Пролёты (ближайшие 24 часа)

TLE

СвежийSource: CelesTrak SupGP

Эпоха: Sep 14, 2026, 21:09 UTC

1 59941C 24106V   26257.88173611 -.00016451  00000+0 -59586-3 0  2579
2 59941  43.0032 340.8121 0001471 265.3297  95.2925 15.27586366    10

Отслеживайте STARLINK-31948 в реальном времени с AllMySat

Download on the App Store